Regional Weather Roundup
Issued by NWS

Home | Current Version | Previous Version | Text Only | Print | Product List | Glossary On
Versions: 1 2 3 4 5 6 7 8 9 10 11 12 13 14 15 16 17 18 19 20 21 22 23 24 25 26 27 28 29 30 31 32 33 34 35 36 37 38 39 40 41 42 43 44 45 46 47 48 49 50
000
ASUS44 KEWX 160102
RWRTX
SOUTH TEXAS REGIONAL WEATHER ROUNDUP
NATIONAL WEATHER SERVICE AUSTIN/SAN ANTONIO TX
800 PM CDT MON SEP 15 2014

NOTE: "FAIR" INDICATED FEW OR NO CLOUDS BELOW 12,000 FEET WITH NO
SIGNIFICANT WEATHER AND/OR OBSTRUCTIONS TO VISIBILITY.

* - THESE STATIONS ARE NOT NWS OR FAA STATIONS...AND ARE NOT SUBJECT
    TO NWS AND FAA QUALITY CONTROL.

TXZ171-172-183>190-160200-
TEXAS HILL COUNTRY AND EDWARDS PLATEAU

CITY           SKY/WX    TMP DP  RH WIND       PRES   REMARKS
JUNCTION       MOCLDY    81  65  58 NE9       30.09R
*LLANO         CLOUDY    82  66  57 E8        30.12R
BURNET         CLOUDY    82  66  58 E7        30.11R
*HORSESHOE BAY CLOUDY    83  64  52 SE5       30.09R
*KERRVILLE     MOCLDY    79  67  67 E5        30.11R
*FREDERICKSBRG CLOUDY    78  67  68 CALM      30.11R
*ROCKSPRINGS   MOCLDY    81  63  54 SE6       30.14R
*BOERNE STAGE  PTCLDY    79  64  61 SE3       30.10R
*CASTROVILLE   PTCLDY    84  64  49 SE5       30.07R
HONDO          MOCLDY    85  65  51 SE8       30.07R
*UVALDE        MOCLDY    82  67  60 SW5       30.06R
DEL RIO        MOCLDY    80  68  66 SE5       30.05R
LAUGHLIN AFB   NOT AVBL
CARRIZO SPRGS  MOCLDY    79  72  78 CALM      30.04R
$$

TXZ173-191>194-202-209-217>225-228-160200-
CENTRAL AND SOUTH CENTRAL TEXAS

CITY           SKY/WX    TMP DP  RH WIND       PRES   REMARKS
GEORGETOWN     CLEAR     84  68  58 VRB3      30.08R
AUSTIN/BERGSTM MOCLDY    83  70  64 NE6       30.05R
AUSTIN/MABRY   PTCLDY    83  69  62 VRB3      30.06S
*AUSTIN/EXEC   PTCLDY    81  70  69 CALM      30.07R
*LAGO VISTA    PTCLDY    81  67  61 CALM      30.10R
SAN MARCOS     PTCLDY    82  66  57 NE6       30.06R
NEW BRAUNFELS  PTCLDY    84  67  56 CALM      30.04R
RANDOLPH AFB   PTCLDY    82  67  58 E1        30.06R
PT SAN ANTONIO PTCLDY    85  67  54 E6        30.04S
SAN ANTONIO    MOCLDY    83  67  58 E5        30.06R
STINSON FIELD  PTCLDY    85  66  53 NE5       30.03R
*PLEASANTON    PTCLDY    82  67  61 NW3       30.04R
*LA GRANGE     CLOUDY    86  74  66 CALM      30.02R HX  94
*GIDDINGS      CLOUDY    83  71  66 NE3       30.08R
*GONZALES      CLOUDY    85  71  61 CALM      30.02R HX  90
$$

TXZ163>164-176>182-195>201-210>213-226-227-235-160200-
SOUTHEAST TEXAS

CITY           SKY/WX    TMP DP  RH WIND       PRES   REMARKS
COLLEGE STN    CLOUDY    83  72  69 NE12      30.05R
*BRYAN         CLOUDY    80  73  78 NE7       30.06R
*CALDWELL      CLOUDY    82  72  69 N5        30.08R
*CROCKETT      CLOUDY    81  75  83 NE6       30.10S
*BRENHAM       CLOUDY    85  74  68 NE5       30.05R HX  92
HUNTSVILLE     PTCLDY    82  73  74 NE3       30.06R
CONROE         MOCLDY    82  72  71 CALM      30.05R
HOUSTON BUSH   MOCLDY    83  76  79 SE7       30.03S HX  91
HOUSTON HOBBY  MOCLDY    83  75  77 E6        30.03R HX  90
*HOUSTON SW AP PTCLDY    82  72  71 E5        30.04R
PEARLAND       PTCLDY    83  77  82 E6        30.04R HX  92
HOUSTON HOOKS  MOCLDY    86  72  62 E5        30.04R HX  92
ELLINGTON FLD  PTCLDY    84  77  79 E3        30.04R HX  94
SUGAR LAND     PTCLDY    85  73  67 E5        30.03R HX  91
*HOUSTON EXEC  MOCLDY    84  84 100 E8        30.04R HX 104
*CLEVELAND MUN PTCLDY    80  76  89 CALM      30.05R
*WHARTON       PTCLDY    82  73  72 E5        30.03R
$$

TXZ214>216-236>238-160200-
THE UPPER TEXAS COAST

CITY           SKY/WX    TMP DP  RH WIND       PRES   REMARKS
*ORANGE        PTCLDY    82  77  83 CALM      30.05R HX  90
PORT ARTHUR    PTCLDY    82  75  79 SE8       30.04R
GALVESTON      MOCLDY    84  79  85 E9        30.04R HX  96
ANGLETON       PTCLDY    82  77  84 E5        30.03R HX  90
*BAY CITY      PTCLDY    83  76  79 E5        30.02R HX  92
PALACIOS       PTCLDY    83  76  79 MISG      30.01R HX  91
$$

TXZ229>234-239>247-160200-
TEXAS COASTAL BEND AND RIO GRANDE PLAINS

CITY           SKY/WX    TMP DP  RH WIND       PRES   REMARKS
VICTORIA       MOCLDY    83  78  85 N3        30.02R HX  93
*BEEVILLE      MOCLDY    85  71  61 CALM      30.01S HX  90
ROCKPORT       MOCLDY    83  77  82 E8        30.00R HX  92
*PORT ARANSAS  PTCLDY    83  76  79 NE12      29.99S HX  90
*PORT LAVACA   MOCLDY    79  76  90 SE3       30.01S
*INGLESIDE     MOCLDY    86  74  67 E8        29.99S HX  94
CORPUS CHRISTI MOCLDY    83  75  77 E9        29.99S HX  90
CORPUS NAS     CLOUDY    84  78  82 NE10      29.99S HX  95
*ROBSTOWN      NOT AVBL
ALICE          PTCLDY    84  73  69 E5        30.00R HX  90
KINGSVILLE NAS NOT AVBL
COTULLA        MOCLDY    82  68  62 NW3       30.03S
*FAITH RANCH   MOCLDY    81  68  65 NE3       30.05S
LAREDO         MOCLDY    83  70  64 N5        30.05R
$$

TXZ248>255-160200-
DEEP SOUTH TEXAS

CITY           SKY/WX    TMP DP  RH WIND       PRES   REMARKS
BROWNSVILLE    LGT RAIN  77  77 100 CALM      30.00R
PORT ISABEL    CLOUDY    80  76  87 N7        29.99
*SOUTH PADRE   CLOUDY    81  77  89 NE14      29.98R VSB 1
HARLINGEN      LGT RAIN  80  78  94 E7        30.00R
*HEBBRONVILLE  MOCLDY    85  67  54 CALM      30.03S
MCALLEN        MOCLDY    84  72  67 N5        30.00R
*WESLACO       HVY RAIN  78  73  86 E5        30.01R
FALFURRIAS     PTCLDY    79  69  69 CALM      29.99S
EDINBURG       LGT RAIN  82  74  77 E6        30.00R
*ZAPATA        CLOUDY    84  68  59 CALM      30.01R
$$

TXZ213>215-236>238-242>244-246-247-251-254-255-160200-
CMAN STATIONS

STATION/POSITION TIME  TEMP    WIND        PRES    WAVE
                       AIR SEA DIR/SP/G            HT/PER
                 (UTC) (F)     (DEG/KT/KT) (MB)    (FT/S)
SABINE PASS      0000   83 82  120/  8/ 10 1017.1
SEA RIM ST PARK  0000   83     110/  6/  7 1017.0
NORTH JETTY/GLS  0000   83 84  120/ 12/ 14   N/A
EAGLE POINT      0000   83 83  110/  8/  9 1016.7
MORGANS POINT    0000   83     120/  6/  8 1016.7
MISSION/ARANSAS  0000   79      90/  9     1017.0
PORT O`CONNOR    0000           80/ 12/ 14   N/A
PORT ARANSAS     0000   83 84   40/ 12/ 13 1016.4
MALAQUITE BEACH  0000   83 84   30/ 14/ 16 1014.8
BAFFIN BAY       0000   83 83   40/ 10/ 12 1015.2
PORT ISABEL      0000   80 82   10/  5/ 10 1015.7
$$

GMZ080-GMZ150>470-160200-
OFFSHORE BUOY REPORTS

STATION/POSITION TIME  TEMP    WIND        PRES    WAVE
                       AIR SEA DIR/SP/G            HT/PER
                 (UTC) (F)     (DEG/KT/KT) (MB)    (FT/S)
20 E GALVESTON   0100   84 85  100/ 12/ 14 1016.3    3/ 5
90 E PT ARANSAS  0100   84 85  100/ 12/ 14 1015.5    4/ 7
35 NE PT MANSFLD 0000   81 84   30/ 14/ 17 1014.1    5/ 6
200 E PT ISABEL  0000   84 86  190/ 12/ 14 1015.2    3/ 5
$$


USA.gov is the U.S. government's official web portal to all federal, state and local government web resources and services.